Weather History for Bainbridge, GA

Change the Weather History Date:

Tuesday, January 29, 2013

  Actual Average (KMAI) Record (KMAI)
Temperature  
Mean Temperature 70 °F 52 °F  
Max Temperature 82 °F 63 °F 82 °F (2013)
Min Temperature 57 °F 40 °F 24 °F (2014)
Degree Days  
Heating Degree Days 0    
Month to date heating degree days  
Since 1 July heating degree days  
Cooling Degree Days 4    
Month to date cooling degree days  
Year to date cooling degree days  
Growing Degree Days 20 (Base 50)    
Moisture  
Dew Point 61 °F    
Average Humidity 80    
Maximum Humidity 100    
Minimum Humidity 48    
Precipitation  
Precipitation 0.00 in 0.19 in 0.50 in (2005)
Month to date precipitation 4.65  
Year to date precipitation 4.65  
Sea Level Pressure  
Sea Level Pressure 30.14 in    
Wind  
Wind Speed 6 mph (SE)    
Max Wind Speed 15 mph    
Max Gust Speed 22 mph    
Visibility 8 miles    
Events      
T = Trace of Precipitation, MM = Missing Value Source: NWS Daily Summary

Daily Weather History Graph

Daily Weather History Graph

Search for Another Location

Airport:

Trip Planner

Search our weather history database for the weather conditions in past years. The results will help you decide how hot, cold, wet, or windy it might be!

Date:

Astronomy

Jan. 29, 2013 Rise Set
Actual Time 7:32 AM EST 6:11 PM EST
Civil Twilight 7:06 AM EST 6:37 PM EST
Nautical Twilight 6:37 AM EST 7:06 PM EST
Astronomical Twilight 6:08 AM EST 7:34 PM EST
Moon 8:51 PM EST (1/29) 8:42 AM EST (1/29)
Length of Visible Light 11h 30m
Length of Day
10h 39m
Waning Gibbous, 94% of the Moon is Illuminated
Jan 29
Waning Gibbous
Feb 3
Last Quarter
Feb 10
New
Feb 17
First Quarter
Feb 25
Full

Hourly Weather History & Observations

Time (EST) Temp. Heat Index Dew Point Humidity Pressure Visibility Wind Dir Wind Speed Gust Speed Precip Events Conditions
12:15 AM 59.0 °F - 59.0 °F 100% 30.25 in 5.0 mi Calm Calm - N/A   Clear
12:55 AM 57.2 °F - 55.4 °F 94% 30.24 in 3.0 mi Calm Calm - N/A   Mist
1:15 AM 57.2 °F - 55.4 °F 94% 30.23 in 1.8 mi Calm Calm - N/A   Mist
1:35 AM 57.2 °F - 55.4 °F 94% 30.23 in 1.5 mi ENE 5.8 mph - N/A   Mist
1:55 AM 59.0 °F - 59.0 °F 100% 30.22 in 2.5 mi ENE 4.6 mph - N/A   Mist
2:15 AM 59.0 °F - 59.0 °F 100% 30.22 in 3.0 mi East 4.6 mph - N/A   Mist
2:35 AM 59.0 °F - 59.0 °F 100% 30.21 in 3.0 mi East 4.6 mph - N/A   Mist
2:55 AM 59.0 °F - 59.0 °F 100% 30.21 in 3.0 mi ENE 6.9 mph - N/A   Mist
3:15 AM 59.0 °F - 59.0 °F 100% 30.21 in 4.0 mi East 6.9 mph - N/A   Scattered Clouds
3:35 AM 59.0 °F - 59.0 °F 100% 30.20 in 4.0 mi East 5.8 mph - N/A   Clear
3:55 AM 59.0 °F - 59.0 °F 100% 30.20 in 4.0 mi East 3.5 mph - N/A   Clear
4:15 AM 59.0 °F - 59.0 °F 100% 30.20 in 5.0 mi ENE 5.8 mph - N/A   Clear
4:35 AM 59.0 °F - 59.0 °F 100% 30.20 in 5.0 mi East 4.6 mph - N/A   Clear
4:55 AM 59.0 °F - 59.0 °F 100% 30.20 in 4.0 mi ENE 4.6 mph - N/A   Clear
5:15 AM 59.0 °F - 59.0 °F 100% 30.20 in 5.0 mi East 4.6 mph - N/A   Scattered Clouds
5:35 AM 59.0 °F - 59.0 °F 100% 30.19 in 4.0 mi East 5.8 mph - N/A   Scattered Clouds
5:55 AM 59.0 °F - 59.0 °F 100% 30.19 in 4.0 mi East 6.9 mph - N/A   Scattered Clouds
6:15 AM 59.0 °F - 59.0 °F 100% 30.20 in 5.0 mi ENE 4.6 mph - N/A   Scattered Clouds
6:35 AM 60.8 °F - 59.0 °F 94% 30.20 in 7.0 mi ENE 4.6 mph - N/A   Scattered Clouds
6:55 AM 59.0 °F - 59.0 °F 100% 30.20 in 7.0 mi ENE 4.6 mph - N/A   Clear
7:15 AM 59.0 °F - 57.2 °F 94% 30.20 in 5.0 mi East 4.6 mph - N/A   Clear
7:35 AM 59.0 °F - 57.2 °F 94% 30.20 in 4.0 mi ENE 4.6 mph - N/A   Clear
7:55 AM 59.0 °F - 57.2 °F 94% 30.21 in 4.0 mi ENE 3.5 mph - N/A   Clear
8:15 AM 59.0 °F - 59.0 °F 100% 30.20 in 3.0 mi East 5.8 mph - N/A   Mist
8:35 AM 60.8 °F - 59.0 °F 94% 30.20 in 4.0 mi East 4.6 mph - N/A   Clear
8:55 AM 62.6 °F - 60.8 °F 94% 30.20 in 5.0 mi Calm Calm - N/A   Clear
9:15 AM 62.6 °F - 60.8 °F 94% 30.20 in 7.0 mi SE 5.8 mph - N/A   Clear
9:35 AM 64.4 °F - 62.6 °F 94% 30.20 in 7.0 mi SE 8.1 mph - N/A   Clear
9:55 AM 69.8 °F - 64.4 °F 83% 30.20 in 10.0 mi SSE 9.2 mph - N/A   Clear
10:15 AM 71.6 °F - 64.4 °F 78% 30.20 in 10.0 mi SE 9.2 mph - N/A   Clear
10:35 AM 71.6 °F - 62.6 °F 73% 30.20 in 10.0 mi South 8.1 mph - N/A   Clear
10:55 AM 73.4 °F - 64.4 °F 73% 30.20 in 10.0 mi SSE 8.1 mph - N/A   Clear
11:15 AM 75.2 °F - 64.4 °F 69% 30.19 in 10.0 mi South 6.9 mph - N/A   Clear
11:35 AM 77.0 °F - 64.4 °F 65% 30.18 in 10.0 mi South 10.4 mph - N/A   Clear
11:55 AM 77.0 °F - 62.6 °F 61% 30.17 in 10.0 mi South 9.2 mph 19.6 mph N/A   Clear
12:15 PM 77.0 °F - 64.4 °F 65% 30.16 in 10.0 mi South 9.2 mph - N/A   Clear
12:55 PM 78.8 °F - 64.4 °F 61% 30.14 in 10.0 mi SSW 9.2 mph - N/A   Clear
1:15 PM 80.6 °F 81.8 °F 62.6 °F 54% 30.12 in 10.0 mi SSE 13.8 mph 18.4 mph N/A   Scattered Clouds
1:35 PM 80.6 °F 81.5 °F 60.8 °F 51% 30.11 in 10.0 mi South 11.5 mph 21.9 mph N/A   Scattered Clouds
1:55 PM 80.6 °F 81.5 °F 60.8 °F 51% 30.11 in 10.0 mi South 13.8 mph 18.4 mph N/A   Scattered Clouds
2:15 PM 82.4 °F 83.4 °F 62.6 °F 51% 30.10 in 10.0 mi South 13.8 mph 19.6 mph N/A   Scattered Clouds
2:35 PM 82.4 °F 82.9 °F 60.8 °F 48% 30.08 in 10.0 mi SSE 12.7 mph - N/A   Clear
2:55 PM 80.6 °F 81.5 °F 60.8 °F 51% 30.08 in 10.0 mi South 15.0 mph 18.4 mph N/A   Scattered Clouds
3:15 PM 82.4 °F 82.9 °F 60.8 °F 48% 30.07 in 10.0 mi SSE 11.5 mph - N/A   Clear
3:35 PM 82.4 °F 82.9 °F 60.8 °F 48% 30.06 in 10.0 mi South 11.5 mph 17.3 mph N/A   Clear
3:55 PM 82.4 °F 82.9 °F 60.8 °F 48% 30.05 in 10.0 mi South 10.4 mph 17.3 mph N/A   Clear
4:15 PM 82.4 °F 82.9 °F 60.8 °F 48% 30.05 in 10.0 mi SSE 10.4 mph - N/A   Clear
4:35 PM 80.6 °F 81.1 °F 59.0 °F 48% 30.04 in 10.0 mi SSE 11.5 mph - N/A   Clear
4:55 PM 80.6 °F 81.1 °F 59.0 °F 48% 30.04 in 10.0 mi SSE 11.5 mph 17.3 mph N/A   Clear
5:15 PM 78.8 °F - 60.8 °F 54% 30.04 in 10.0 mi SSE 15.0 mph 19.6 mph N/A   Clear
5:35 PM 77.0 °F - 62.6 °F 61% 30.04 in 10.0 mi SSE 12.7 mph 20.7 mph N/A   Clear
5:55 PM 75.2 °F - 62.6 °F 65% 30.05 in 10.0 mi SSE 8.1 mph - N/A   Clear
6:15 PM 73.4 °F - 62.6 °F 69% 30.05 in 10.0 mi SSE 12.7 mph 16.1 mph N/A   Clear
6:35 PM 71.6 °F - 62.6 °F 73% 30.05 in 10.0 mi South 12.7 mph - N/A   Scattered Clouds
6:55 PM 71.6 °F - 64.4 °F 78% 30.06 in 10.0 mi South 10.4 mph - N/A   Mostly Cloudy
7:15 PM 71.6 °F - 64.4 °F 78% 30.07 in 10.0 mi South 9.2 mph 16.1 mph N/A   Overcast
7:35 PM 71.6 °F - 66.2 °F 83% 30.08 in 10.0 mi South 6.9 mph - N/A   Mostly Cloudy
7:55 PM 71.6 °F - 66.2 °F 83% 30.08 in 10.0 mi South 9.2 mph - N/A   Mostly Cloudy
8:15 PM 71.6 °F - 68.0 °F 88% 30.07 in 10.0 mi South 9.2 mph - N/A   Scattered Clouds
8:35 PM 71.6 °F - 68.0 °F 88% 30.08 in 10.0 mi South 11.5 mph 16.1 mph N/A   Mostly Cloudy
8:55 PM 71.6 °F - 66.2 °F 83% 30.07 in 10.0 mi South 11.5 mph 17.3 mph N/A   Mostly Cloudy
9:15 PM 69.8 °F - 64.4 °F 83% 30.06 in 10.0 mi SSE 6.9 mph - N/A   Mostly Cloudy
9:35 PM 69.8 °F - 64.4 °F 83% 30.05 in 10.0 mi SE 8.1 mph - N/A   Mostly Cloudy
9:55 PM 68.0 °F - 62.6 °F 83% 30.05 in 10.0 mi SSE 6.9 mph - N/A   Mostly Cloudy
10:15 PM 68.0 °F - 62.6 °F 83% 30.05 in 10.0 mi South 4.6 mph - N/A   Mostly Cloudy
10:35 PM 68.0 °F - 64.4 °F 88% 30.05 in 10.0 mi SSE 3.5 mph - N/A   Mostly Cloudy
10:55 PM 68.0 °F - 64.4 °F 88% 30.05 in 10.0 mi South 6.9 mph - N/A   Mostly Cloudy
11:15 PM 68.0 °F - 64.4 °F 88% 30.05 in 10.0 mi South 6.9 mph - N/A   Mostly Cloudy
11:35 PM 68.0 °F - 64.4 °F 88% 30.05 in 10.0 mi South 6.9 mph - N/A   Scattered Clouds
11:55 PM 68.0 °F - 64.4 °F 88% 30.04 in 10.0 mi SSE 9.2 mph - N/A   Scattered Clouds